Wind_Speed
4 6 13 13 7 8 4 4 9 13 11 10 13 15 17 20 8 4 2 5 7 9 8 13 17 18 20 25 18 14 10 15 21 24 24 27 29 32 34 36 39 39 46 51
4 12 10 5 9 7 7 8 12 9 11 7 16 20 20 12 1 5 4 5 6 5 9 13 18 20 21 19 20 20 18 15 15 24 26 30 29 30 35 37 41 47 47 46
8 4 6 10 7 7 7 8 9 9 10 10 11 11 2 3 7 8 5 4 4 5 8 9 12 15 17 19 19 17 16 18 15 12 16 22 26 27 25 32 37 42 47 48
6 4 7 6 5 9 7 10 11 13 4 5 4 8 6 4 6 4 4 3 4 7 7 6 8 8 8 10 13 16 17 18 20 18 15 16 21 23 28 35 38 42 47 51
6 7 6 9 10 9 7 6 7 5 5 3 5 7 1 0 4 5 4 2 3 5 6 10 10 9 9 10 13 14 14 15 18 19 17 15 16 17 18 20 27 36 42 50
4 1 6 7 3 6 5 3 3 2 2 7 12 12 1 2 1 0 1 3 5 8 11 11 11 11 12 12 11 13 14 13 16 18 16 15 14 15 19 20 19 14 14 22
5 6 3 3 5 1 3 5 2 3 3 5 4 6 12 1 2 3 2 1 5 7 11 13 13 15 13 12 12 12 13 13 14 15 14 13 14 13 13 13 14 18 19 14
9 4 8 4 8 6 8 6 4 5 4 2 1 7 1 4 3 2 2 4 6 9 11 12 14 17 16 15 13 12 13 14 14 14 14 14 13 12 11 11 11 13 14 16
5 3 1 3 2 3 5 4 2 0 2 3 4 5 3 2 2 3 4 6 9 11 12 14 17 18 19 18 16 14 15 17 17 16 14 14 13 12 13 13 10 8 10 13
6 4 2 1 4 6 2 7 4 1 3 6 6 9 8 2 5 6 11 11 11 11 12 13 14 19 22 21 19 16 15 17 19 18 17 15 13 11 13 14 14 13 9 11
5 1 2 2 5 8 4 3 3 2 3 4 7 7 5 8 7 9 14 13 15 16 15 14 16 18 20 19 16 16 13 10 14 14 15 17 14 14 14 14 15 14 12 11
1 4 4 2 3 5 2 4 5 4 5 3 3 12 8 6 4 11 12 12 12 13 12 11 15 14 15 13 10 11 13 13 13 13 12 15 18 17 14 15 18 17 17 12
6 2 4 1 2 2 1 2 4 4 2 8 6 9 6 4 17 14 18 14 10 11 12 12 10 10 9 12 11 13 14 15 15 16 16 15 16 18 16 19 20 21 23 21
4 4 3 6 2 4 5 6 7 4 2 8 13 22 19 18 19 21 19 17 12 13 15 15 14 10 11 10 9 12 15 16 18 19 17 17 18 19 21 19 19 21 20 21
2 3 3 4 5 4 5 6 7 8 9 9 21 20 21 18 18 18 17 13 12 13 15 16 15 11 13 14 16 16 18 17 19 19 19 21 24 23 19 16 16 18 17 18
1 4 2 0 4 5 9 8 8 10 14 17 19 21 15 15 10 13 12 10 13 14 15 18 12 10 17 17 17 18 19 19 20 17 18 20 22 22 19 17 14 15 15 15
4 6 3 2 4 3 9 10 9 6 5 10 12 15 14 12 15 13 13 15 16 16 16 17 16 18 23 25 24 24 24 25 22 19 19 18 19 20 22 20 17 15 14 14
6 6 2 4 2 4 3 0 4 9 10 12 13 13 11 9 10 15 18 15 16 18 19 19 19 26 29 29 27 24 24 24 23 21 20 20 18 20 19 20 17 15 13 14
1 4 3 4 5 7 5 4 3 6 15 10 9 6 10 13 16 20 17 14 17 18 18 23 28 29 31 31 30 26 25 23 19 19 20 22 20 21 20 19 15 14 13 13
5 4 3 3 3 5 2 4 5 6 9 6 8 13 17 17 14 17 19 19 22 27 27 29 34 33 31 31 29 25 24 21 20 22 22 23 19 20 20 18 17 14 11 13
5 3 5 4 4 6 8 2 3 3 3 12 13 14 17 15 13 23 23 22 27 30 33 34 33 31 32 31 29 27 26 23 26 22 24 22 20 20 19 17 16 14 13 12
6 7 4 3 3 8 5 3 3 7 8 11 13 15 18 19 22 22 24 24 23 24 31 32 29 29 32 31 28 29 25 27 27 25 23 23 21 17 17 16 16 14 13 12
5 5 5 8 5 1 4 2 6 6 8 10 14 14 17 19 21 22 22 24 22 29 30 32 29 31 31 30 28 28 28 27 27 26 27 24 18 16 17 17 15 14 12 12
4 4 3 3 3 9 8 6 6 4 10 11 11 15 17 18 20 22 21 21 20 26 27 30 31 28 28 28 26 29 27 27 25 26 18 17 17 16 14 15 14 12 13 13
2 8 5 5 9 8 7 4 6 8 10 10 14 15 16 17 19 20 18 20 20 24 27 27 27 28 28 28 23 27 28 23 21 16 17 17 15 12 13 13 11 11 15 17
5 7 6 6 8 4 6 4 7 8 9 12 13 17 17 17 19 20 18 21 24 24 29 29 29 29 28 27 25 25 18 17 13 13 11 12 11 11 10 7 5 5 8 9
Wind_Direction
171 199 221 223 208 229 249 256 270 275 277 296 278 277 282 289 281 167 61 67 61 47 15 24 25 24 25 31 28 14 343 266 237 231 226 227 226 230 236 235 234 229 227 225
144 222 223 191 206 213 236 266 271 281 279 292 294 290 288 305 355 142 116 72 59 52 39 26 20 20 25 25 24 22 13 347 298 244 236 229 230 234 233 232 231 232 226 226
195 193 186 184 178 188 214 231 251 266 307 284 304 284 157 49 114 121 112 100 71 40 24 21 20 20 20 20 16 18 20 16 360 330 285 267 244 234 230 232 232 231 230 223
225 213 175 172 198 193 226 218 239 263 267 269 358 295 272 184 172 163 109 72 44 21 15 5 4 359 354 359 9 13 8 6 9 6 342 309 267 249 240 235 231 230 232 227
209 172 179 212 230 186 248 196 207 224 229 282 253 273 135 157 249 194 166 116 40 11 352 358 356 342 341 348 353 354 2 11 8 3 358 353 342 341 328 279 262 240 232 228
210 170 167 189 146 174 135 125 70 60 224 252 240 225 18 174 360 54 179 35 20 7 0 0 0 357 349 344 346 353 356 1 3 359 359 358 347 338 335 325 314 325 280 254
199 214 189 157 127 107 133 139 243 232 202 256 12 228 256 149 11 3 128 20 1 359 357 351 351 344 340 336 320 326 334 334 345 349 346 349 342 333 327 326 320 317 304 268
180 204 170 169 203 177 180 184 185 234 217 263 264 252 243 99 118 83 42 356 341 336 338 335 338 335 334 333 325 307 309 309 320 326 327 332 328 329 328 324 320 316 312 303
153 181 101 67 115 156 163 187 105 104 125 277 246 266 158 184 115 59 2 323 315 305 312 322 325 328 328 322 315 301 302 296 299 300 305 313 319 312 322 334 329 315 311 302
186 132 347 68 116 50 159 141 136 71 247 258 253 267 248 177 89 52 3 348 330 312 302 309 325 332 333 321 308 296 290 287 293 291 288 285 297 304 315 316 309 322 332 314
135 119 163 161 206 175 151 148 83 191 192 246 284 266 130 140 125 8 346 337 331 319 317 318 315 314 311 311 313 307 305 312 310 299 289 278 280 292 306 305 302 305 314 323
139 119 153 156 37 8 77 164 165 197 207 249 289 270 116 130 11 336 326 321 321 310 308 309 311 313 320 311 298 306 318 336 343 340 321 296 287 285 282 286 291 290 286 294
172 118 125 76 23 17 160 136 109 96 113 222 240 258 120 314 320 320 313 309 308 307 312 307 311 318 321 324 320 327 330 330 336 340 337 320 318 307 298 287 286 291 286 280
82 150 198 236 135 140 175 172 167 154 212 286 253 282 285 302 310 310 302 299 290 306 310 307 306 303 307 310 316 326 328 334 335 329 327 318 320 319 314 309 299 293 286 273
118 209 165 119 134 182 217 221 211 212 231 234 278 269 290 302 303 297 297 297 309 305 306 313 310 306 310 311 318 323 325 328 331 326 321 319 319 315 316 316 308 295 283 272
104 145 107 168 210 247 265 244 226 234 246 257 269 281 286 288 303 296 292 295 299 302 311 310 285 311 312 309 309 315 317 314 317 310 306 313 315 307 302 304 301 291 283 270
140 132 113 210 131 324 275 240 206 210 222 263 275 279 286 274 296 305 310 310 307 310 312 315 308 313 310 305 303 310 310 308 304 302 305 308 310 301 294 297 298 293 283 273
137 120 104 148 154 245 90 25 216 236 256 254 261 281 305 321 317 306 299 299 300 308 308 308 305 305 304 301 290 295 295 293 289 291 304 308 303 300 292 293 294 294 287 273
97 124 129 174 205 323 275 188 157 266 287 285 287 320 324 323 316 296 301 304 298 300 299 297 296 296 297 297 295 295 289 286 278 280 288 296 297 293 288 285 288 295 288 271
116 89 132 148 178 239 173 197 154 148 275 79 350 322 318 318 308 294 313 310 305 303 300 302 301 298 293 290 296 297 289 291 280 284 286 295 290 287 281 279 286 294 289 273
125 88 183 172 213 273 258 144 169 222 315 321 334 323 316 308 294 298 304 300 298 296 298 299 294 289 290 291 291 287 290 288 289 288 295 293 286 287 279 281 282 289 286 277
158 155 179 135 193 249 187 160 258 320 315 318 318 315 306 302 302 300 298 299 304 302 300 296 290 288 290 289 286 283 285 287 290 292 287 284 283 279 275 273 283 282 273 257
183 186 180 199 208 202 199 275 285 299 311 307 312 316 307 304 306 307 305 302 301 302 301 299 294 293 289 285 281 283 286 289 285 288 283 278 276 273 276 276 274 275 271 238
214 176 199 174 209 240 250 271 288 275 301 311 307 314 310 306 308 309 309 307 305 304 303 301 298 293 292 292 285 280 282 288 287 279 267 271 267 268 274 274 271 260 248 216
171 159 186 245 265 266 264 234 296 305 309 314 318 312 312 312 311 312 307 309 307 304 300 297 294 288 290 291 280 289 289 294 287 261 270 265 260 264 270 265 262 262 258 240
189 192 200 228 218 224 268 298 307 306 319 321 320 321 321 319 316 315 309 310 312 308 305 302 296 290 286 287 289 290 293 291 258 263 252 256 261 262 257 251 261 263 259 255
Height
778 782 782 777 784 781 786 793 792 782 775 781 774 769 763 754 761 771 774 774 775 775 775 772 768 764 761 757 754 755 756 757 756 757 759 759 758 760 764 763 766 768 765 765
781 781 775 777 781 783 786 790 789 784 777 777 768 764 758 760 764 772 775 776 778 776 774 772 768 766 764 762 758 757 755 755 754 754 751 750 751 751 753 754 754 755 755 761
774 771 770 776 782 785 785 788 787 788 779 775 772 757 761 774 773 776 778 778 779 776 774 773 773 771 767 763 760 759 756 754 753 753 752 749 746 743 744 746 746 746 748 747
775 767 771 778 779 778 787 779 780 782 789 784 775 770 756 765 771 774 777 778 777 776 774 773 773 772 771 768 764 762 759 757 754 752 750 749 745 741 737 734 733 732 733 734
766 770 774 777 772 775 776 775 780 781 784 786 781 781 751 763 759 766 776 776 777 776 774 773 775 774 772 769 766 763 759 756 754 752 750 748 745 742 737 733 729 723 721 719
763 763 764 763 768 770 771 776 783 789 786 786 771 774 756 756 764 769 775 776 776 776 776 774 774 773 772 770 766 764 760 756 754 752 751 749 745 741 737 733 730 722 721 722
766 764 761 761 768 772 772 778 787 788 794 775 775 776 751 766 773 773 774 776 778 778 775 775 772 770 769 767 765 762 759 756 753 752 750 747 745 741 736 732 728 724 717 712
764 772 763 761 759 765 772 772 783 788 782 774 780 765 751 775 777 778 777 778 779 778 776 771 770 768 766 763 760 759 757 754 751 750 748 744 742 740 735 731 727 724 720 715
763 765 762 761 760 761 774 775 777 781 792 790 766 759 774 776 775 776 777 777 775 774 771 770 769 767 763 760 756 753 751 749 746 745 744 743 739 737 735 731 727 721 719 715
756 767 769 766 761 768 764 770 782 787 790 780 760 760 755 770 773 775 774 773 772 770 769 766 765 764 760 758 754 751 747 744 742 740 739 738 737 735 732 730 728 723 716 714
754 759 774 770 767 766 773 775 783 783 789 779 772 750 764 771 775 777 774 771 768 765 764 765 763 761 759 755 751 749 745 739 737 736 733 733 731 730 727 727 725 722 716 713
757 762 770 770 777 774 770 773 776 780 789 792 790 757 769 775 777 776 773 772 770 768 764 762 762 758 755 752 749 747 743 739 735 731 729 728 726 724 722 722 722 720 717 709
754 769 776 780 779 779 779 781 789 802 805 787 791 761 770 772 772 772 771 770 769 767 762 759 756 754 752 750 748 745 741 737 733 730 727 725 721 720 714 716 716 715 712 707
752 766 757 758 763 772 777 781 784 788 799 787 780 772 768 770 773 770 767 767 766 764 761 756 753 751 750 747 744 741 738 734 731 730 726 723 719 716 713 709 711 709 708 705
758 762 771 775 774 779 777 780 785 790 789 795 768 775 772 775 777 772 767 766 766 762 758 755 752 750 748 745 743 739 736 733 731 728 726 722 716 714 711 707 707 706 703 701
768 776 780 783 777 779 780 781 784 785 782 780 777 777 778 774 774 769 766 765 761 758 756 753 749 746 745 742 740 737 734 732 730 726 723 719 716 712 710 708 705 703 699 697
768 773 780 785 784 787 786 775 778 777 777 778 783 774 772 776 772 768 766 765 761 758 755 751 748 746 743 740 737 733 730 727 724 722 718 716 713 709 706 704 703 699 696 696
770 772 782 792 788 795 775 779 777 778 777 776 774 772 774 776 776 771 765 764 761 756 752 748 744 740 736 733 730 728 725 721 718 716 713 710 708 705 702 699 698 696 694 692
774 778 796 795 791 778 768 773 772 771 767 769 772 776 777 775 773 760 758 759 757 754 750 745 741 736 732 727 724 722 718 715 711 709 707 704 701 698 696 694 693 692 689 688
781 779 785 802 802 799 773 770 771 773 774 778 778 774 773 769 767 746 751 752 749 747 744 739 732 728 726 721 718 715 712 707 704 701 699 696 694 692 689 687 687 686 687 685
785 795 793 795 795 783 769 773 770 776 771 773 773 771 769 768 767 753 751 746 746 741 735 731 726 720 716 713 711 707 703 700 697 694 692 689 687 685 685 684 683 682 682 682
776 788 796 811 813 792 770 771 772 768 769 769 768 768 765 763 758 755 748 742 737 732 727 724 717 711 708 706 703 697 694 692 690 687 684 682 681 680 680 679 678 677 677 677
769 767 770 773 768 764 766 765 769 769 766 766 766 766 764 760 755 750 743 737 731 727 721 717 712 704 700 698 695 688 686 685 682 679 676 674 675 674 675 675 673 672 672 671
764 768 767 764 762 762 765 767 766 765 765 766 766 763 761 756 752 746 739 733 727 722 717 712 705 698 691 690 686 682 679 677 675 672 670 670 670 670 670 670 669 667 667 668
759 763 761 761 759 760 760 762 763 765 766 764 763 761 756 752 747 742 735 729 722 716 709 704 697 690 685 682 679 677 674 671 668 666 665 665 665 664 665 666 665 663 663 664
757 753 758 754 751 754 756 760 763 764 763 762 759 753 750 749 743 737 731 724 717 709 702 696 690 683 677 674 672 669 668 665 663 662 661 662 662 662 662 663 662 661 661 660